Location: Trondheim
(63.4170°N, 10.4170°E)
Time: 04:34:42
(UTC+01:00)

N. Korean satellite - Visible Passes

Search period start: 20 November 2019 00:00
Search period end: 30 November 2019 00:00
Orbit: 456 x 506 km, 97.2° (Epoch: 18 November)

Date Brightness Start Highest point End Pass type
(mag) Time Alt. Az. Time Alt. Az. Time Alt. Az.
20 Nov 9.8 05:06:12 10° NE 05:08:32 16° E 05:10:51 10° ESE visible
20 Nov 6.8 06:38:48 10° NNE 06:42:34 79° ESE 06:46:17 10° SSW visible
20 Nov 7.8 17:25:07 10° S 17:28:42 47° W 17:32:21 10° NNW visible
21 Nov 10.3 04:42:15 10° ENE 04:42:47 10° E 04:43:19 10° E visible
21 Nov 7.7 06:13:27 10° NNE 06:17:06 49° E 06:20:42 10° S visible
21 Nov 7.3 07:47:02 10° N 07:50:25 33° WNW 07:53:45 10° WSW visible
21 Nov 6.8 16:59:32 10° SSE 17:03:14 77° WSW 17:07:00 10° NNW visible
21 Nov 9.9 18:35:01 10° WSW 18:37:17 15° W 18:39:34 10° NW visible
22 Nov 8.6 05:48:11 10° NNE 05:51:34 31° E 05:54:53 10° SSE visible
22 Nov 6.8 07:21:30 10° N 07:25:08 49° WNW 07:28:43 10° SW visible
22 Nov 6.6 16:34:09 10° SSE 16:37:50 68° ENE 16:41:34 10° NNW visible
22 Nov 9.3 18:08:36 10° SW 18:11:36 23° W 18:14:39 10° NW visible
23 Nov 9.4 05:23:04 10° NE 05:25:56 21° E 05:28:46 10° SE visible
23 Nov 6.5 06:56:02 10° NNE 06:59:46 77° WNW 07:03:28 10° SSW visible
23 Nov 7.0 16:08:57 10° SE 16:12:30 44° ENE 16:16:05 10° N visible
23 Nov 8.4 17:42:34 10° SSW 17:46:00 35° W 17:49:29 10° NNW visible
24 Nov 10.0 04:58:16 10° NE 05:00:14 14° E 05:02:10 10° ESE visible
24 Nov 7.0 06:30:38 10° NNE 06:34:21 68° ESE 06:38:01 10° S visible
24 Nov 7.4 17:16:49 10° S 17:20:29 55° WSW 17:24:11 10° NNW visible
24 Nov 10.2 18:53:22 10° WSW 18:54:43 12° W 18:56:04 10° WNW visible
25 Nov 8.0 06:05:17 10° NNE 06:08:51 42° E 06:12:21 10° S visible
25 Nov 7.2 07:38:47 10° N 07:42:15 37° WNW 07:45:39 10° SW visible
25 Nov 6.7 16:51:17 10° SSE 16:55:01 88° WSW 16:58:47 10° NNW visible
25 Nov 9.7 18:26:24 10° SW 18:28:58 17° W 18:31:34 10° NW visible
26 Nov 8.9 05:40:03 10° NNE 05:43:17 27° E 05:46:27 10° SSE visible
26 Nov 6.7 07:13:16 10° NNE 07:16:56 56° WNW 07:20:32 10° SW visible
26 Nov 6.7 16:25:58 10° SE 16:29:37 59° ENE 16:33:20 10° NNW visible
26 Nov 9.0 18:00:08 10° SSW 18:03:19 26° W 18:06:31 10° NNW visible
27 Nov 9.6 05:15:00 10° NE 05:17:37 18° E 05:20:12 10° SE visible
27 Nov 6.6 06:47:48 10° NNE 06:51:33 88° WNW 06:55:13 10° SSW visible
27 Nov 7.1 16:00:50 10° SE 16:04:18 39° ENE 16:07:49 10° N visible
27 Nov 8.1 17:34:11 10° S 17:37:44 40° W 17:41:18 10° NNW visible
28 Nov 10.1 04:50:26 10° ENE 04:51:53 12° E 04:53:18 10° ESE visible
28 Nov 7.3 06:22:24 10° NNE 06:26:07 58° ESE 06:29:42 10° S visible
28 Nov 7.5 07:56:05 10° N 07:59:18 28° NW 08:02:30 10° WSW visible
28 Nov 7.1 17:08:30 10° S 17:12:13 64° WSW 17:15:57 10° NNW visible
28 Nov 10.0 18:44:29 10° WSW 18:46:22 13° W 18:48:13 10° NW visible
29 Nov 8.3 05:57:06 10° NNE 06:00:34 36° E 06:03:57 10° SSE visible
29 Nov 7.0 07:30:31 10° N 07:34:02 41° WNW 07:37:29 10° SW visible
29 Nov 6.6 16:43:02 10° SSE 16:46:46 81° ENE 16:50:32 10° NNW visible
29 Nov 9.5 18:17:50 10° SW 18:20:38 20° W 18:23:27 10° NW visible
